Regional Weather Roundup
Issued by NWS Boston, MA

Home | Current Version | Previous Version | Text Only | Print | Product List | Glossary On
Versions: 1 2 3 4 5 6 7 8 9 10 11 12 13 14 15 16 17 18 19 20 21 22 23 24 25 26 27 28
000
ASUS41 KBOX 201610
RWRBOX

REGIONAL WEATHER ROUNDUP
NATIONAL WEATHER SERVICE BOSTON/NORTON MA
1200 PM EDT SUN MAY 20 2018

NOTE:  "FAIR" INDICATES FEW OR NO CLOUDS BELOW 12,000 FEET WITH NO
SIGNIFICANT WEATHER AND/OR OBSTRUCTIONS TO VISIBILITY.

MAZALL-201700-
EASTERN MASSACHUSETTS

CITY           SKY/WX    TMP DP  RH WIND       PRES   REMARKS
BOSTON         PTSUNNY   74  67  78 SW17G25   29.84F
BEVERLY        PTSUNNY   77  68  73 W12G22    29.82F
LAWRENCE       PTSUNNY   79  65  62 SW18G24   29.84F
BEDFORD        PTSUNNY   77  66  68 SW14G22   29.83F
BLUE HILL        N/A     70  66  87 SW13G23   29.87S
NORWOOD        CLOUDY    75  67  76 SW10G20   29.86F
MARSHFIELD     CLOUDY    72  66  83 SW9G20    29.86F
PLYMOUTH       CLOUDY    68  64  87 SW16      29.89F
TAUNTON        CLOUDY    68  63  84 SW10      29.89S
NEW BEDFORD    CLOUDY    65  63  93 SW15G22   29.90F
$$

MAZALL-201700-
CAPE COD AND THE ISLANDS

CITY           SKY/WX    TMP DP  RH WIND       PRES   REMARKS
FALMOUTH       CLOUDY    61  61 100 SW18G30   29.93F FOG
HYANNIS        CLOUDY    63  60  90 SW24G35   29.90F FOG
CHATHAM        FOG       58  58 100 SW8G22    29.93F VSB 3/4
PROVINCETOWN   CLOUDY    61  58  90 SW20G31   29.88F
NANTUCKET      FOG       57  57 100 SW18      29.96F VSB 1/4
MARTHAS VNYRD  CLOUDY    59  59 100 SW17G26   29.94F FOG
$$

MAZALL-201700-
CENTRAL AND WESTERN MASSACHUSETTS

CITY           SKY/WX    TMP DP  RH WIND       PRES   REMARKS
WORCESTER      CLOUDY    70  64  81 SW14G24   29.88F
FITCHBURG      FAIR      76  66  71 W10G24    29.85F
ORANGE         CLOUDY    71  66  84 S10       29.88S
SPRINGFIELD    PTSUNNY   74  65  75 S9        29.86F
WESTFIELD      CLOUDY    78  65  63 SW9       29.86F
NORTH ADAMS    LGT RAIN  67  65  93 VRB5      29.88S
PITTSFIELD     CLOUDY    69  62  78 SW10      29.90R
$$

RIZALL-201700-
RHODE ISLAND

CITY           SKY/WX    TMP DP  RH WIND       PRES   REMARKS
PROVIDENCE     CLOUDY    72  66  81 SW15G21   29.90F
NEWPORT        FOG       58  58 100 S9        29.92F VSB 1
BLOCK ISLAND   LGT RAIN  57  56  96 SW21G28   29.95S FOG
SMITHFIELD     CLOUDY    70  66  87 MISG      29.89F
WESTERLY       CLOUDY    61  61 100 SW7       29.94F FOG
$$

CTZALL-201700-
CONNECTICUT

CITY           SKY/WX    TMP DP  RH WIND       PRES   REMARKS
BRADLEY INTL   PTSUNNY   78  65  63 SW15      29.88F
HARTFORD       CLOUDY    74  67  78 S9        29.88F
BRIDGEPORT     FAIR      71  65  81 SW8       29.92F
DANBURY        FAIR      75  67  76 W17G23    29.93F
GROTON         FOG       61  61 100 CALM      29.92F VSB 1
NEW HAVEN      PTSUNNY   72  67  84 SW8G17    29.91F HAZE
CHESTER        CLOUDY    70  68  94 VRB6G14   29.93S FOG
MERIDEN        CLOUDY    71  67  87 S9        29.90F
WILLIMANTIC    CLOUDY    73  66  78 SW10G18   29.90S
OXFORD         CLOUDY    73  66  78 SW9G18    29.93S
$$

MEZ002-015-021-024-NHZ003-005-008-011-012-014-VTZ005-008-201700-
NORTHERN NEW ENGLAND

CITY           SKY/WX    TMP DP  RH WIND       PRES   REMARKS
PORTLAND ME    CLOUDY    71  64  78 VRB7      29.79S
BANGOR ME      CLOUDY    62  58  86 W9        29.78S
CONCORD NH     PTSUNNY   76  65  68 SW12G18   29.83S
MANCHESTER NH  CLOUDY    76  63  64 SW12G18   29.82S
NASHUA NH      PTSUNNY   75  66  73 W10G20    29.84S
PORTSMOUTH NH  PTSUNNY   78  65  64 W12G20    29.79
JAFFREY NH     CLOUDY    69  65  86 SW8       29.88S
KEENE NH       LGT RAIN  69  65  86 SW3       29.87S
BURLINGTON VT  CLOUDY    62  56  80 N5        29.89S
MT. WASHINGTON SHOWER    45  45 100 NW53        N/A  VSB 1/16WCI  32
$$

NYZ052-076-201700-
EASTERN NEW YORK

CITY           SKY/WX    TMP DP  RH WIND       PRES   REMARKS
ALBANY         CLOUDY    69  64  84 S6        29.89R
NEW YORK CITY  PTSUNNY   78  66  66 W10       29.92F
$$

ANZALL-201700-
MARINE OBSERVATIONS

STATION/POSITION TIME  TEMP    WIND        PRES    VSBY  WAVE
                       AIR SEA DIR/SP/G                  HT/PER
                 (UTC) (F)     (DEG/KT/KT) (MB)    (MI)  (FT/S)
BOSTON BUOY      1550   62 53  220/ 10/ 12 1010.9F         3/ 6
BUZZARDS BAY     1500   54     230/ 19/ 20 1014.5F
NANTUCKET SOUND  1550   55 51  230/ 19/ 21 1013.5F         2/ 3
MASS BAY-STELLWA 1504   57 52              1009.2F         3/ 6
ISLE OF SHOALS   1600   73     250/ 18/ 19 1008.9F
S OF BLOCK IS    1543      49                N/A           5/ 6
$$

......................KEY.........................
  SKY/WX - SKY CONDITION/PRESENT WEATHER
  TMP    - TEMPERATURE IN FAHRENHEIT
  DWPT   - DEWPOINT IN FAHRENHEIT
  RH     - RELATIVE HUMIDITY IN PERCENT
  WIND   - DIRECTION AND SPEED IN MPH
  PRES   - MEAN SEA LEVEL PRESSURE IN INCHES OF HG
  WCI    - WIND CHILL INDEX
  VSB    - VISIBILITY IN MILES
  HX     - HEAT INDEX
  TC     - TEMPERATURE IN CELSIUS
  VRB    - VARIABLE WIND DIRECTION
  N/A    - NOT AVAILABLE




USA.gov is the U.S. government's official web portal to all federal, state and local government web resources and services.